TimeCDT,TemperatureF,Dew PointF,Humidity,Sea Level PressureIn,VisibilityMPH,Wind Direction,Wind SpeedMPH,Gust SpeedMPH,PrecipitationIn,Events,Conditions,WindDirDegrees,DateUTC
12:56 AM,80.1,71.1,74,30.13,10.0,SSW,4.6,-,N/A,,Clear,200,2013-09-17 05:56:00
1:56 AM,80.1,71.1,74,30.13,10.0,South,3.5,-,N/A,,Scattered Clouds,190,2013-09-17 06:56:00
2:56 AM,80.1,71.1,74,30.12,10.0,Calm,Calm,-,N/A,,Scattered Clouds,0,2013-09-17 07:56:00
3:56 AM,80.1,72.0,76,30.11,10.0,Calm,Calm,-,N/A,,Clear,0,2013-09-17 08:56:00
4:56 AM,75.9,71.1,85,30.10,10.0,North,4.6,-,N/A,,Scattered Clouds,350,2013-09-17 09:56:00
5:56 AM,75.9,70.0,82,30.10,10.0,Calm,Calm,-,N/A,,Mostly Cloudy,0,2013-09-17 10:56:00
6:56 AM,75.9,71.1,85,30.12,10.0,Calm,Calm,-,N/A,,Clear,0,2013-09-17 11:56:00
7:56 AM,75.9,71.1,85,30.14,10.0,NNE,3.5,-,N/A,,Clear,30,2013-09-17 12:56:00
8:53 AM,78.8,73.4,83,30.08,10.0,Calm,Calm,-,N/A,,Mostly Cloudy,0,2013-09-17 13:53:00
8:56 AM,80.1,73.0,79,30.15,10.0,NE,3.5,-,N/A,,Mostly Cloudy,50,2013-09-17 13:56:00
9:18 AM,80.6,73.4,79,30.09,10.0,ENE,3.5,-,N/A,,Scattered Clouds,60,2013-09-17 14:18:00
9:56 AM,82.0,73.9,76,30.16,10.0,East,4.6,-,N/A,,Scattered Clouds,80,2013-09-17 14:56:00
10:15 AM,82.4,73.4,74,30.09,10.0,ESE,6.9,-,N/A,,Mostly Cloudy,110,2013-09-17 15:15:00
10:46 AM,84.2,71.6,66,30.09,10.0,SE,8.1,-,N/A,,Scattered Clouds,140,2013-09-17 15:46:00
10:56 AM,84.9,73.0,67,30.15,10.0,East,4.6,-,N/A,,Partly Cloudy,100,2013-09-17 15:56:00
1:56 PM,90.0,68.0,48,30.04,10.0,East,3.5,-,N/A,,Clear,100,2013-09-17 18:56:00
2:56 PM,91.9,68.0,45,30.00,10.0,ESE,9.2,-,N/A,,Clear,110,2013-09-17 19:56:00
3:56 PM,91.9,66.9,44,29.98,10.0,SE,9.2,-,N/A,,Clear,130,2013-09-17 20:56:00
4:56 PM,91.0,68.0,47,29.97,10.0,SE,10.4,-,N/A,,Clear,130,2013-09-17 21:56:00
5:56 PM,89.1,66.0,46,29.95,10.0,ENE,8.1,-,N/A,,Clear,70,2013-09-17 22:56:00
6:56 PM,90.0,64.9,43,29.96,10.0,ENE,4.6,-,N/A,,Scattered Clouds,70,2013-09-17 23:56:00
7:56 PM,88.0,64.0,45,29.97,10.0,Calm,Calm,-,N/A,,Partly Cloudy,0,2013-09-18 00:56:00
8:56 PM,84.9,66.0,53,29.98,10.0,Calm,Calm,-,N/A,,Partly Cloudy,0,2013-09-18 01:56:00
9:56 PM,84.9,66.9,55,30.01,10.0,South,4.6,-,N/A,,Partly Cloudy,170,2013-09-18 02:56:00
10:56 PM,84.0,69.1,61,30.02,10.0,South,5.8,-,N/A,,Clear,180,2013-09-18 03:56:00
11:56 PM,82.9,69.1,63,30.03,10.0,South,5.8,-,N/A,,Clear,180,2013-09-18 04:56:00